Weather in Torla

Spain     42°37′44″N   0°06′41″E
temp.,
°C
wind,
m/s
gust,
m/s
humid.,
%
clouds,
%
prec.,
mm/h
press.,
hPa
HPBL,
m
17 april, sat
sat1723:00−8n359038 0.0 1026213
02:00−7n459178 0.1 1025340
05:00−9n359577 0.0 1024173
08:00−8n459277 0.1 1024269
11:00−4n457275 0.1 1021764
14:00−1n566578 0.1 10191247
17:00−2n557376 0.3 10191027
20:00−5n558277 0.3 1022601
18 april, sun
sun1823:00−6n459375 0.1 1025314
02:00−6n459178 0.2 1024322
05:00−6n459175 0.1 1023307
08:00−6n459475 0.1 1024202
11:000nne34654 0.0 1021645
14:00+3n33564 0.0 10181101
17:00+4n436024 0.0 10171056
20:000n34836 0.0 1020181
19 april, mon
mon1923:00−3n229233 0.0 102326
02:00−3n12665 0.0 102115
05:00−2nw11485 0.0 101911
08:00−1nnw114471 0.0 101812
11:00+5wnw1132100 0.0 1014711
14:00+7nw2236100 0.0 10121756
17:00+6n2252100 0.1 10111543
20:00+2n2291100 0.4 1013120
20 april, tue
tue2023:000nne119896 0.3 1015132
02:00−1n119342 0.3 101453
05:00−1n119298 0.0 101334
08:00−1n119194 0.1 1012110
11:00+1nnw2287100 0.3 1011501
14:00+2nnw229099 1.3 1010511
17:00+2n239799 1.2 1011310
20:00+1n239798 1.9 1012192
21 april, wed
wed2123:00−1n2399100 1.6 1015175
02:00−2n2499100 2.2 1016238
05:00−2nne339499 0.3 1016270
08:00−2nne339570 0.4 1017162
11:00+1nne337770 0.1 1016847
14:00+4nne226673 0.3 10151264
17:00+4nne327293 0.5 1014972
20:00+2nne328877 1.0 1017476